York, PA

10:00 PM EDT on April 30, 2017 (GMT -0400)
York

Weather History for KTHV - August, 2013

Change the Weather History Date:

Tuesday, August 27, 2013

  Actual Average Record
Temperature  
Mean Temperature 78 °F -  
Max Temperature 87 °F 90 °F 90 °F (1970)
Min Temperature 71 °F 58 °F 48 °F (2008)
Cooling Degree Days 14    
Growing Degree Days 28 (Base 50)    
Moisture  
Dew Point 66 °F    
Average Humidity 68    
Maximum Humidity 85    
Minimum Humidity 51    
Precipitation  
Precipitation 0.02 in - - ()
Sea Level Pressure  
Sea Level Pressure 29.93 in    
Wind  
Wind Speed 3 mph (WNW)    
Max Wind Speed 7 mph    
Max Gust Speed -    
Visibility 9 miles    
Events Rain    
Averages and records for this station are not official NWS values.
T = Trace of Precipitation, MM = Missing Value Source: NWS Daily Summary

Daily Weather History Graph

Daily Weather History Graph

Search for Another Location

Airport or City:

Trip Planner

Search our weather history database for the weather conditions in past years. The results will help you decide how hot, cold, wet, or windy it might be!

Date:

Astronomy

Aug. 27, 2013 Rise Set
Actual Time 6:30 AM EDT 7:46 PM EDT
Civil Twilight 6:02 AM EDT 8:14 PM EDT
Nautical Twilight 5:29 AM EDT 8:47 PM EDT
Astronomical Twilight 4:53 AM EDT 9:22 PM EDT
Moon 11:38 PM EDT (8/27) 1:26 PM EDT (8/27)
Length of Visible Light 14h 11m
Length of Day
13h 15m
Waning Gibbous, 57% of the Moon is Illuminated
Aug 27
Waning Gibbous
Aug 28
Last Quarter
Sep 5
New
Sep 12
First Quarter
Sep 19
Full

Hourly Weather History & Observations

Time (EDT) Temp. Heat Index Dew Point Humidity Pressure Visibility Wind Dir Wind Speed Gust Speed Precip Events Conditions
12:53 AM 73.9 °F - 61.0 °F 64% 29.98 in 10.0 mi West 4.6 mph - N/A   Mostly Cloudy
1:53 AM 72.0 °F - 64.0 °F 76% 29.96 in 10.0 mi WSW 3.5 mph - 0.02 in Rain Light Rain
2:53 AM 73.0 °F - 64.0 °F 73% 29.95 in 10.0 mi Calm Calm - 0.00 in   Partly Cloudy
3:53 AM 73.0 °F - 63.0 °F 71% 29.94 in 10.0 mi Calm Calm - N/A   Overcast
4:53 AM 73.0 °F - 63.0 °F 71% 29.94 in 10.0 mi West 3.5 mph - N/A   Mostly Cloudy
5:53 AM 71.1 °F - 63.0 °F 75% 29.94 in 10.0 mi West 4.6 mph - N/A   Clear
6:53 AM 71.1 °F - 63.0 °F 75% 29.95 in 10.0 mi Calm Calm - N/A   Clear
7:53 AM 73.9 °F - 64.9 °F 73% 29.95 in 10.0 mi West 3.5 mph - N/A   Clear
8:53 AM 77.0 °F - 66.0 °F 69% 29.94 in 10.0 mi WNW 5.8 mph - N/A   Clear
9:53 AM 80.1 °F 82.7 °F 68.0 °F 67% 29.95 in 9.0 mi Variable 4.6 mph - N/A   Partly Cloudy
10:53 AM 80.1 °F 82.3 °F 66.9 °F 64% 29.96 in 9.0 mi NNW 6.9 mph - N/A   Overcast
11:51 AM 78.8 °F - 66.2 °F 65% 29.96 in 8.0 mi NW 4.6 mph - N/A   Overcast
11:53 AM 79.0 °F - 66.9 °F 66% 29.96 in 8.0 mi NW 4.6 mph - N/A   Overcast
12:00 PM 80.6 °F 83.2 °F 68.0 °F 65% 29.96 in 8.0 mi NNW 3.5 mph - N/A   Overcast
12:53 PM 82.0 °F 84.9 °F 68.0 °F 62% 29.95 in 9.0 mi NNE 5.8 mph - N/A   Mostly Cloudy
1:53 PM 84.9 °F 87.6 °F 66.9 °F 55% 29.93 in 10.0 mi Variable 4.6 mph - N/A   Partly Cloudy
2:53 PM 84.9 °F 87.6 °F 66.9 °F 55% 29.92 in 10.0 mi Calm Calm - N/A   Mostly Cloudy
3:53 PM 84.9 °F 87.1 °F 66.0 °F 53% 29.91 in 10.0 mi Variable 3.5 mph - N/A   Mostly Cloudy
4:53 PM 86.0 °F 88.2 °F 66.0 °F 51% 29.90 in 10.0 mi Calm Calm - N/A   Partly Cloudy
5:53 PM 86.0 °F 88.8 °F 66.9 °F 53% 29.88 in 10.0 mi Calm Calm - N/A   Clear
6:53 PM 82.9 °F 86.5 °F 69.1 °F 63% 29.88 in 10.0 mi Calm Calm - N/A   Clear
7:53 PM 77.0 °F - 69.1 °F 76% 29.89 in 8.0 mi Calm Calm - N/A   Clear
8:53 PM 75.0 °F - 69.1 °F 82% 29.91 in 8.0 mi Calm Calm - N/A   Clear
9:53 PM 75.9 °F - 69.1 °F 79% 29.92 in 6.0 mi Calm Calm - N/A   Haze
10:53 PM 73.9 °F - 69.1 °F 85% 29.93 in 5.0 mi Calm Calm - N/A   Haze
11:53 PM 73.9 °F - 69.1 °F 85% 29.92 in 5.0 mi Calm Calm - N/A   Haze